Wetterdaten: Freitag, 24.04.2015
Datum Zeit Temp. A. Feuchte A. Luftdruck Regen Wind Richtung Richtung Sonnenschein ET UV Solar Taupunkt Windchill Windben Empfang
24.04.2015 00:00 5,1 C 99 % 1017,5 hPa 0,0 l/m 0,0 km/h (0 Bft) S 187 0 min 0,000 mm 0,0 UV-I 0 W/m 5,0 C 5,1 C 0,0 km/h (0 Bft) 0,00 %
24.04.2015 00:15 5,1 C 99 % 1017,2 hPa 0,0 l/m 0,0 km/h (0 Bft) S 172 0 min 0,000 mm 0,0 UV-I 0 W/m 5,0 C 5,1 C 0,0 km/h (0 Bft) 0,00 %
24.04.2015 00:30 5,1 C 99 % 1017,5 hPa 0,0 l/m 0,0 km/h (0 Bft) S 188 0 min 0,000 mm 0,0 UV-I 0 W/m 5,0 C 5,1 C 0,0 km/h (0 Bft) 0,00 %
24.04.2015 00:45 5,1 C 99 % 1017,1 hPa 0,0 l/m 0,0 km/h (0 Bft) S-SW 203 0 min 0,000 mm 0,0 UV-I 0 W/m 5,0 C 5,1 C 0,0 km/h (0 Bft) 0,00 %
24.04.2015 01:00 5,0 C 99 % 1017,3 hPa 0,0 l/m 0,0 km/h (0 Bft) S-SW 203 0 min 0,000 mm 0,0 UV-I 0 W/m 4,9 C 5,0 C 0,0 km/h (0 Bft) 0,00 %
24.04.2015 01:15 4,9 C 99 % 1017,0 hPa 0,0 l/m 0,0 km/h (0 Bft) S-SW 196 0 min 0,000 mm 0,0 UV-I 0 W/m 4,8 C 4,9 C 0,0 km/h (0 Bft) 0,00 %
24.04.2015 01:30 5,0 C 99 % 1017,3 hPa 0,0 l/m 0,0 km/h (0 Bft) W-SW 255 0 min 0,000 mm 0,0 UV-I 0 W/m 4,9 C 5,0 C 0,0 km/h (0 Bft) 0,00 %
24.04.2015 01:45 5,0 C 99 % 1016,9 hPa 0,0 l/m 0,0 km/h (0 Bft) S 172 0 min 0,000 mm 0,0 UV-I 0 W/m 4,9 C 5,0 C 0,0 km/h (0 Bft) 0,00 %
24.04.2015 02:00 5,1 C 99 % 1016,8 hPa 0,0 l/m 0,0 km/h (0 Bft) S 175 0 min 0,000 mm 0,0 UV-I 0 W/m 5,0 C 5,1 C 0,0 km/h (0 Bft) 0,00 %
24.04.2015 02:15 5,1 C 99 % 1016,7 hPa 0,0 l/m 0,0 km/h (0 Bft) S 182 0 min 0,000 mm 0,0 UV-I 0 W/m 5,0 C 5,1 C 0,0 km/h (0 Bft) 0,00 %
24.04.2015 02:30 5,1 C 99 % 1016,6 hPa 0,0 l/m 0,0 km/h (0 Bft) S 183 0 min 0,000 mm 0,0 UV-I 0 W/m 5,0 C 5,1 C 0,0 km/h (0 Bft) 0,00 %
24.04.2015 02:45 5,1 C 99 % 1016,5 hPa 0,0 l/m 0,0 km/h (0 Bft) S-SW 194 0 min 0,000 mm 0,0 UV-I 0 W/m 5,0 C 5,1 C 0,0 km/h (0 Bft) 0,00 %
24.04.2015 03:00 5,1 C 99 % 1016,3 hPa 0,0 l/m 0,0 km/h (0 Bft) S-SW 194 0 min 0,000 mm 0,0 UV-I 0 W/m 5,0 C 5,1 C 0,0 km/h (0 Bft) 0,00 %
24.04.2015 03:15 5,0 C 99 % 1016,6 hPa 0,0 l/m 0,0 km/h (0 Bft) S-SW 194 0 min 0,000 mm 0,0 UV-I 0 W/m 4,9 C 5,0 C 0,0 km/h (0 Bft) 0,00 %
24.04.2015 03:30 4,8 C 99 % 1016,5 hPa 0,0 l/m 0,0 km/h (0 Bft) S-SW 194 0 min 0,000 mm 0,0 UV-I 0 W/m 4,7 C 4,8 C 0,0 km/h (0 Bft) 0,00 %
24.04.2015 03:45 4,6 C 99 % 1016,6 hPa 0,0 l/m 0,0 km/h (0 Bft) S-SW 194 0 min 0,000 mm 0,0 UV-I 0 W/m 4,5 C 4,6 C 0,0 km/h (0 Bft) 0,00 %
24.04.2015 04:00 4,5 C 99 % 1016,8 hPa 0,0 l/m 0,0 km/h (0 Bft) S-SW 194 0 min 0,000 mm 0,0 UV-I 0 W/m 4,4 C 4,5 C 0,0 km/h (0 Bft) 0,00 %
24.04.2015 04:15 4,5 C 99 % 1016,6 hPa 0,0 l/m 0,0 km/h (0 Bft) S-SW 194 0 min 0,000 mm 0,0 UV-I 0 W/m 4,4 C 4,5 C 0,0 km/h (0 Bft) 0,00 %
24.04.2015 04:30 4,5 C 99 % 1016,5 hPa 0,0 l/m 0,0 km/h (0 Bft) S-SW 194 0 min 0,000 mm 0,0 UV-I 0 W/m 4,4 C 4,5 C 0,0 km/h (0 Bft) 0,00 %
24.04.2015 04:45 4,3 C 99 % 1016,5 hPa 0,0 l/m 0,0 km/h (0 Bft) SW 215 0 min 0,000 mm 0,0 UV-I 0 W/m 4,2 C 4,3 C 0,0 km/h (0 Bft) 0,00 %
24.04.2015 05:00 4,2 C 99 % 1016,2 hPa 0,0 l/m 0,0 km/h (0 Bft) S 187 0 min 0,000 mm 0,0 UV-I 0 W/m 4,1 C 4,2 C 0,0 km/h (0 Bft) 0,00 %
24.04.2015 05:15 4,3 C 99 % 1016,4 hPa 0,0 l/m 0,0 km/h (0 Bft) S-SW 205 0 min 0,000 mm 0,0 UV-I 0 W/m 4,2 C 4,3 C 0,0 km/h (0 Bft) 0,00 %
24.04.2015 05:30 4,5 C 99 % 1016,4 hPa 0,0 l/m 0,0 km/h (0 Bft) S 190 0 min 0,000 mm 0,0 UV-I 0 W/m 4,4 C 4,5 C 0,0 km/h (0 Bft) 0,00 %
24.04.2015 05:45 4,5 C 99 % 1016,7 hPa 0,0 l/m 0,0 km/h (0 Bft) S 180 0 min 0,000 mm 0,0 UV-I 0 W/m 4,4 C 4,5 C 0,0 km/h (0 Bft) 0,00 %
24.04.2015 06:00 4,5 C 99 % 1016,7 hPa 0,0 l/m 0,0 km/h (0 Bft) SW 219 0 min 0,000 mm 0,0 UV-I 0 W/m 4,4 C 4,5 C 0,0 km/h (0 Bft) 0,00 %
24.04.2015 06:15 4,4 C 99 % 1017,3 hPa 0,0 l/m 0,0 km/h (0 Bft) S-SW 195 0 min 0,000 mm 0,0 UV-I 3 W/m 4,3 C 4,4 C 0,0 km/h (0 Bft) 0,00 %
24.04.2015 06:30 4,3 C 99 % 1017,6 hPa 0,0 l/m 0,0 km/h (0 Bft) S 190 0 min 0,000 mm 0,0 UV-I 16 W/m 4,2 C 4,3 C 0,0 km/h (0 Bft) 0,00 %
24.04.2015 06:45 4,1 C 99 % 1017,4 hPa 0,0 l/m 0,0 km/h (0 Bft) S 183 0 min 0,000 mm 0,0 UV-I 32 W/m 4,0 C 4,1 C 0,0 km/h (0 Bft) 0,00 %
24.04.2015 07:00 4,2 C 99 % 1017,7 hPa 0,0 l/m 0,0 km/h (0 Bft) S 177 0 min 0,000 mm 1,0 UV-I 55 W/m 4,1 C 4,2 C 0,0 km/h (0 Bft) 0,00 %
24.04.2015 07:15 4,3 C 99 % 1017,7 hPa 0,0 l/m 0,0 km/h (0 Bft) S-SW 194 0 min 0,000 mm 1,0 UV-I 85 W/m 4,2 C 4,3 C 0,0 km/h (0 Bft) 0,00 %
24.04.2015 07:30 4,5 C 99 % 1017,7 hPa 0,0 l/m 0,0 km/h (0 Bft) W-SW 252 15 min 0,000 mm 1,0 UV-I 136 W/m 4,4 C 4,5 C 0,0 km/h (0 Bft) 0,00 %
24.04.2015 07:45 4,7 C 99 % 1017,8 hPa 0,0 l/m 0,0 km/h (0 Bft) SO 145 0 min 0,000 mm 1,0 UV-I 127 W/m 4,6 C 4,7 C 0,0 km/h (0 Bft) 0,00 %
24.04.2015 08:00 4,9 C 99 % 1017,9 hPa 0,0 l/m 0,0 km/h (0 Bft) SW 218 0 min 0,000 mm 1,0 UV-I 125 W/m 4,8 C 4,9 C 0,0 km/h (0 Bft) 0,00 %
24.04.2015 08:15 5,5 C 98 % 1017,7 hPa 0,0 l/m 0,0 km/h (0 Bft) S 176 15 min 0,000 mm 1,0 UV-I 206 W/m 5,2 C 5,5 C 0,0 km/h (0 Bft) 0,00 %
24.04.2015 08:30 6,2 C 97 % 1017,7 hPa 0,0 l/m 0,0 km/h (0 Bft) S 183 0 min 0,000 mm 2,0 UV-I 180 W/m 5,8 C 6,2 C 0,0 km/h (0 Bft) 0,00 %
24.04.2015 08:45 7,1 C 96 % 1017,6 hPa 0,0 l/m 0,0 km/h (0 Bft) S 182 0 min 0,000 mm 2,0 UV-I 195 W/m 6,5 C 7,1 C 0,0 km/h (0 Bft) 0,00 %
24.04.2015 09:00 7,5 C 90 % 1017,3 hPa 0,0 l/m 2,9 km/h (1 Bft) W-SW 251 15 min 0,000 mm 2,0 UV-I 269 W/m 6,0 C 7,5 C 4,0 km/h (1 Bft) 0,00 %
24.04.2015 09:15 8,3 C 86 % 1017,6 hPa 0,0 l/m 0,0 km/h (0 Bft) SW 217 0 min 0,000 mm 2,0 UV-I 280 W/m 6,1 C 8,3 C 0,0 km/h (0 Bft) 0,00 %
24.04.2015 09:30 8,7 C 83 % 1017,5 hPa 0,0 l/m 0,0 km/h (0 Bft) S-SW 206 15 min 0,000 mm 3,0 UV-I 341 W/m 6,0 C 8,7 C 0,0 km/h (0 Bft) 0,00 %
24.04.2015 09:45 9,6 C 80 % 1017,1 hPa 0,0 l/m 0,0 km/h (0 Bft) SW 226 0 min 0,000 mm 3,0 UV-I 292 W/m 6,3 C 9,6 C 0,0 km/h (0 Bft) 0,00 %
24.04.2015 10:00 9,7 C 77 % 1017,1 hPa 0,0 l/m 0,0 km/h (0 Bft) SW 233 15 min 0,000 mm 3,0 UV-I 384 W/m 5,9 C 9,7 C 0,0 km/h (0 Bft) 0,00 %
24.04.2015 10:15 10,3 C 78 % 1017,1 hPa 0,0 l/m 1,8 km/h (1 Bft) SW 230 15 min 0,000 mm 4,0 UV-I 445 W/m 6,6 C 10,3 C 4,0 km/h (1 Bft) 0,00 %
24.04.2015 10:30 10,5 C 76 % 1016,9 hPa 0,0 l/m 1,8 km/h (1 Bft) W-NW 293 15 min 0,000 mm 4,0 UV-I 448 W/m 6,5 C 10,5 C 4,0 km/h (1 Bft) 0,00 %
24.04.2015 10:45 10,8 C 71 % 1016,9 hPa 0,0 l/m 0,0 km/h (0 Bft) NW 304 15 min 0,000 mm 4,0 UV-I 471 W/m 5,8 C 10,8 C 0,0 km/h (0 Bft) 0,00 %
24.04.2015 11:00 10,9 C 67 % 1016,7 hPa 0,0 l/m 0,0 km/h (0 Bft) O-SO 122 15 min 0,000 mm 4,0 UV-I 502 W/m 5,0 C 10,9 C 0,0 km/h (0 Bft) 0,00 %
24.04.2015 11:15 12,2 C 67 % 1015,4 hPa 0,0 l/m 0,0 km/h (0 Bft) W-SW 256 15 min 0,000 mm 4,0 UV-I 534 W/m 6,3 C 12,2 C 0,0 km/h (0 Bft) 0,00 %
24.04.2015 11:30 11,6 C 68 % 1015,4 hPa 0,0 l/m 0,0 km/h (0 Bft) W 275 15 min 0,000 mm 5,0 UV-I 575 W/m 5,9 C 11,6 C 0,0 km/h (0 Bft) 0,00 %
24.04.2015 11:45 11,9 C 66 % 1015,2 hPa 0,0 l/m 0,4 km/h (0 Bft) S-SW 201 15 min 0,000 mm 5,0 UV-I 607 W/m 5,8 C 11,9 C 4,0 km/h (1 Bft) 0,00 %
24.04.2015 12:00 12,3 C 62 % 1015,2 hPa 0,0 l/m 8,3 km/h (2 Bft) NW 305 15 min 0,000 mm 5,0 UV-I 633 W/m 5,2 C 11,1 C 11,9 km/h (2 Bft) 0,00 %
24.04.2015 12:15 12,5 C 60 % 1015,1 hPa 0,0 l/m 0,0 km/h (0 Bft) N-NW 348 15 min 0,000 mm 5,0 UV-I 655 W/m 5,0 C 12,5 C 0,0 km/h (0 Bft) 0,00 %
24.04.2015 12:30 12,6 C 60 % 1014,8 hPa 0,0 l/m 0,0 km/h (0 Bft) W-SW 253 15 min 0,000 mm 5,0 UV-I 668 W/m 5,0 C 12,6 C 0,0 km/h (0 Bft) 0,00 %
24.04.2015 12:45 13,3 C 59 % 1014,7 hPa 0,0 l/m 0,0 km/h (0 Bft) SO 137 15 min 0,000 mm 5,0 UV-I 691 W/m 5,5 C 13,3 C 0,0 km/h (0 Bft) 0,00 %
24.04.2015 13:00 13,6 C 58 % 1014,5 hPa 0,0 l/m 4,7 km/h (1 Bft) NW 324 15 min 0,000 mm 5,0 UV-I 697 W/m 5,5 C 13,6 C 7,9 km/h (2 Bft) 0,00 %
24.04.2015 13:15 14,2 C 61 % 1014,0 hPa 0,0 l/m 1,4 km/h (1 Bft) S-SO 148 15 min 0,000 mm 5,0 UV-I 715 W/m 6,8 C 14,2 C 4,0 km/h (1 Bft) 0,00 %
24.04.2015 13:30 14,4 C 62 % 1014,0 hPa 0,0 l/m 1,8 km/h (1 Bft) NW 322 15 min 0,000 mm 5,0 UV-I 734 W/m 7,2 C 14,4 C 4,0 km/h (1 Bft) 0,00 %
24.04.2015 13:45 14,7 C 55 % 1013,9 hPa 0,0 l/m 0,4 km/h (0 Bft) S-SW 199 15 min 0,000 mm 5,0 UV-I 735 W/m 5,8 C 14,7 C 4,0 km/h (1 Bft) 0,00 %
24.04.2015 14:00 14,9 C 52 % 1013,5 hPa 0,0 l/m 0,0 km/h (0 Bft) O 90 15 min 0,000 mm 5,0 UV-I 738 W/m 5,1 C 14,9 C 0,0 km/h (0 Bft) 0,00 %
24.04.2015 14:15 15,4 C 48 % 1013,1 hPa 0,0 l/m 0,0 km/h (0 Bft) O-SO 110 15 min 0,000 mm 5,0 UV-I 768 W/m 4,4 C 15,4 C 0,0 km/h (0 Bft) 0,00 %
24.04.2015 14:30 16,4 C 45 % 1012,8 hPa 0,0 l/m 0,0 km/h (0 Bft) S-SW 203 15 min 0,000 mm 4,0 UV-I 765 W/m 4,4 C 16,4 C 0,0 km/h (0 Bft) 0,00 %
24.04.2015 14:45 17,6 C 45 % 1012,3 hPa 0,0 l/m 0,0 km/h (0 Bft) W-SW 255 15 min 0,000 mm 4,0 UV-I 796 W/m 5,5 C 17,6 C 0,0 km/h (0 Bft) 0,00 %
24.04.2015 15:00 18,2 C 41 % 1012,2 hPa 0,0 l/m 0,0 km/h (0 Bft) S 183 15 min 0,000 mm 2,0 UV-I 803 W/m 4,7 C 18,2 C 0,0 km/h (0 Bft) 0,00 %
24.04.2015 15:15 17,7 C 44 % 1012,0 hPa 0,0 l/m 0,0 km/h (0 Bft) W-NW 299 15 min 0,000 mm 2,0 UV-I 797 W/m 5,3 C 17,7 C 0,0 km/h (0 Bft) 0,00 %
24.04.2015 15:30 17,1 C 47 % 1012,0 hPa 0,0 l/m 6,5 km/h (2 Bft) O-SO 112 15 min 0,000 mm 2,0 UV-I 776 W/m 5,7 C 17,1 C 7,9 km/h (2 Bft) 0,00 %
24.04.2015 15:45 16,6 C 48 % 1011,8 hPa 0,0 l/m 3,2 km/h (1 Bft) W-NW 294 15 min 0,000 mm 2,0 UV-I 753 W/m 5,5 C 16,6 C 4,0 km/h (1 Bft) 0,00 %
24.04.2015 16:00 17,6 C 44 % 1011,6 hPa 0,0 l/m 1,8 km/h (1 Bft) O-SO 116 15 min 0,000 mm 2,0 UV-I 744 W/m 5,2 C 17,6 C 4,0 km/h (1 Bft) 0,00 %
24.04.2015 16:15 17,1 C 47 % 1011,6 hPa 0,0 l/m 0,0 km/h (0 Bft) S 182 15 min 0,000 mm 2,0 UV-I 733 W/m 5,7 C 17,1 C 0,0 km/h (0 Bft) 0,00 %
24.04.2015 16:30 17,1 C 48 % 1011,4 hPa 0,0 l/m 0,0 km/h (0 Bft) W-SW 254 15 min 0,000 mm 2,0 UV-I 711 W/m 6,0 C 17,1 C 0,0 km/h (0 Bft) 0,00 %
24.04.2015 16:45 16,7 C 49 % 1011,1 hPa 0,0 l/m 0,0 km/h (0 Bft) O-NO 71 15 min 0,000 mm 2,0 UV-I 687 W/m 5,9 C 16,7 C 0,0 km/h (0 Bft) 0,00 %
24.04.2015 17:00 16,9 C 48 % 1011,2 hPa 0,0 l/m 0,0 km/h (0 Bft) O-NO 66 15 min 0,000 mm 2,0 UV-I 670 W/m 5,8 C 16,9 C 0,0 km/h (0 Bft) 0,00 %
24.04.2015 17:15 17,1 C 44 % 1011,1 hPa 0,0 l/m 2,9 km/h (1 Bft) O 99 15 min 0,000 mm 1,0 UV-I 641 W/m 4,8 C 17,1 C 4,0 km/h (1 Bft) 0,00 %
24.04.2015 17:30 17,3 C 42 % 1011,0 hPa 0,0 l/m 0,0 km/h (0 Bft) S 175 15 min 0,000 mm 1,0 UV-I 619 W/m 4,3 C 17,3 C 0,0 km/h (0 Bft) 0,00 %
24.04.2015 17:45 17,4 C 43 % 1011,0 hPa 0,0 l/m 1,4 km/h (1 Bft) O-SO 117 15 min 0,000 mm 1,0 UV-I 590 W/m 4,7 C 17,4 C 4,0 km/h (1 Bft) 0,00 %
24.04.2015 18:00 17,0 C 41 % 1011,0 hPa 0,0 l/m 0,0 km/h (0 Bft) SO 125 15 min 0,000 mm 1,0 UV-I 550 W/m 3,7 C 17,0 C 0,0 km/h (0 Bft) 0,00 %
24.04.2015 18:15 16,7 C 44 % 1011,0 hPa 0,0 l/m 6,5 km/h (2 Bft) O-SO 106 15 min 0,000 mm 1,0 UV-I 497 W/m 4,4 C 16,7 C 7,9 km/h (2 Bft) 0,00 %
24.04.2015 18:30 16,6 C 44 % 1011,0 hPa 0,0 l/m 0,0 km/h (0 Bft) SO 130 15 min 0,000 mm 1,0 UV-I 447 W/m 4,3 C 16,6 C 0,0 km/h (0 Bft) 0,00 %
24.04.2015 18:45 16,5 C 48 % 1011,3 hPa 0,0 l/m 0,0 km/h (0 Bft) S 171 15 min 0,000 mm 1,0 UV-I 383 W/m 5,5 C 16,5 C 0,0 km/h (0 Bft) 0,00 %
24.04.2015 19:00 16,2 C 50 % 1011,1 hPa 0,0 l/m 0,0 km/h (0 Bft) O-SO 110 15 min 0,000 mm 1,0 UV-I 302 W/m 5,8 C 16,2 C 0,0 km/h (0 Bft) 0,00 %
24.04.2015 19:15 15,9 C 50 % 1011,1 hPa 0,0 l/m 0,0 km/h (0 Bft) S 177 15 min 0,000 mm 0,0 UV-I 222 W/m 5,5 C 15,9 C 0,0 km/h (0 Bft) 0,00 %
24.04.2015 19:30 15,4 C 52 % 1011,4 hPa 0,0 l/m 0,0 km/h (0 Bft) SO 128 15 min 0,000 mm 0,0 UV-I 85 W/m 5,6 C 15,4 C 0,0 km/h (0 Bft) 0,00 %
24.04.2015 19:45 14,5 C 55 % 1011,9 hPa 0,0 l/m 0,0 km/h (0 Bft) S 190 15 min 0,000 mm 0,0 UV-I 27 W/m 5,6 C 14,5 C 0,0 km/h (0 Bft) 0,00 %
24.04.2015 20:00 13,7 C 56 % 1012,1 hPa 0,0 l/m 0,0 km/h (0 Bft) O-SO 123 0 min 0,000 mm 0,0 UV-I 3 W/m 5,1 C 13,7 C 0,0 km/h (0 Bft) 0,00 %
24.04.2015 20:15 13,3 C 59 % 1012,1 hPa 0,0 l/m 0,0 km/h (0 Bft) S 173 0 min 0,000 mm 0,0 UV-I 0 W/m 5,5 C 13,3 C 0,0 km/h (0 Bft) 0,00 %
24.04.2015 20:30 12,7 C 62 % 1012,5 hPa 0,0 l/m 0,0 km/h (0 Bft) S 184 0 min 0,000 mm 0,0 UV-I 0 W/m 5,6 C 12,7 C 0,0 km/h (0 Bft) 0,00 %
24.04.2015 20:45 11,4 C 70 % 1012,7 hPa 0,0 l/m 0,0 km/h (0 Bft) S-SW 194 0 min 0,000 mm 0,0 UV-I 0 W/m 6,1 C 11,4 C 0,0 km/h (0 Bft) 0,00 %
24.04.2015 21:00 10,6 C 73 % 1012,9 hPa 0,0 l/m 0,0 km/h (0 Bft) S 189 0 min 0,000 mm 0,0 UV-I 0 W/m 6,0 C 10,6 C 0,0 km/h (0 Bft) 0,00 %
24.04.2015 21:15 10,3 C 73 % 1012,9 hPa 0,0 l/m 0,0 km/h (0 Bft) S 181 0 min 0,000 mm 0,0 UV-I 0 W/m 5,7 C 10,3 C 0,0 km/h (0 Bft) 0,00 %
24.04.2015 21:30 10,3 C 69 % 1013,2 hPa 0,0 l/m 0,0 km/h (0 Bft) S 183 0 min 0,000 mm 0,0 UV-I 0 W/m 4,9 C 10,3 C 0,0 km/h (0 Bft) 0,00 %
24.04.2015 21:45 10,3 C 70 % 1013,1 hPa 0,0 l/m 0,0 km/h (0 Bft) S 182 0 min 0,000 mm 0,0 UV-I 0 W/m 5,1 C 10,3 C 0,0 km/h (0 Bft) 0,00 %
24.04.2015 22:00 10,0 C 72 % 1013,0 hPa 0,0 l/m 0,0 km/h (0 Bft) S-SW 197 0 min 0,000 mm 0,0 UV-I 0 W/m 5,2 C 10,0 C 0,0 km/h (0 Bft) 0,00 %
24.04.2015 22:15 9,8 C 72 % 1013,1 hPa 0,0 l/m 0,0 km/h (0 Bft) S-SW 196 0 min 0,000 mm 0,0 UV-I 0 W/m 5,0 C 9,8 C 0,0 km/h (0 Bft) 0,00 %
24.04.2015 22:30 9,5 C 74 % 1013,1 hPa 0,0 l/m 0,0 km/h (0 Bft) S 185 0 min 0,000 mm 0,0 UV-I 0 W/m 5,1 C 9,5 C 0,0 km/h (0 Bft) 0,00 %
24.04.2015 22:45 9,0 C 76 % 1013,2 hPa 0,0 l/m 0,0 km/h (0 Bft) S 185 0 min 0,000 mm 0,0 UV-I 0 W/m 5,0 C 9,0 C 0,0 km/h (0 Bft) 0,00 %
24.04.2015 23:00 8,4 C 79 % 1013,1 hPa 0,0 l/m 0,0 km/h (0 Bft) S 182 0 min 0,000 mm 0,0 UV-I 0 W/m 5,0 C 8,4 C 0,0 km/h (0 Bft) 0,00 %
24.04.2015 23:15 8,1 C 81 % 1013,2 hPa 0,0 l/m 0,0 km/h (0 Bft) S 178 0 min 0,000 mm 0,0 UV-I 0 W/m 5,0 C 8,1 C 0,0 km/h (0 Bft) 0,00 %
24.04.2015 23:30 7,6 C 83 % 1013,5 hPa 0,0 l/m 0,0 km/h (0 Bft) S 179 0 min 0,000 mm 0,0 UV-I 0 W/m 4,9 C 7,6 C 0,0 km/h (0 Bft) 0,00 %
24.04.2015 23:45 7,5 C 85 % 1013,5 hPa 0,0 l/m 0,0 km/h (0 Bft) S 182 0 min 0,000 mm 0,0 UV-I 0 W/m 5,1 C 7,5 C 0,0 km/h (0 Bft) 0,00 %
_ Min-Zeit 06:45 15:00 17:30 - 00:00 - - - - - - 18:00 06:45 00:00 00:00
Minimum _ 4,1 C 41 % 1011,0 hPa - 0,0 km/h (0 Bft) - - - - - - 3,7 C 4,1 C 0,0 km/h (0 Bft) 0,00 %
_ Max-Zeit 15:00 00:00 08:00 00:00 12:00 - - 07:30 00:00 11:30 15:00 13:30 15:00 12:00 00:00
Maximum _ 18,2 C 99 % 1017,9 hPa 0,0 l/m 8,3 km/h
NW (2 Bft)
- - 15 min 0,000 mm 5,0 UV-I 803 W/m 7,2 C 18,2 C 11,9 km/h
NW (2 Bft)
0,00 %
Durchschnitt _ 10,1 C 75 % 1014,7 hPa #0,0 l/m 0,5 km/h (0 Bft) O-SO - #11:00 h #0,000 mm 2,8 UV-I 463 W/m 5,1 C 10,1 C 0,8 km/h (0 Bft) 0,00 %